sat.trackr.live / text

‹ back to catalog

STARLINK-31849

NORAD 59734 · 2024-090E

PAYLOAD ACTIVE UNKNOWN

§ Identity

Operator
Country
US
Launch date
2024-05-13
Launch site
AFETR
Launch vehicle
Mass (kg)
RCS (m²)

Purposes: comms

External: N2YO · Heavens-Above · Gunter

§ Orbital elements

Epoch: 2026-09-21T00:34:27.847488Z

Period
94.27 min
Inclination
43.0023°
Eccentricity
0.0001098
Mean motion
15.27576548 rev/d
Perigee alt
482.3 km
Apogee alt
483.8 km
Semi-major
6,861.2 km
B*
8.1869e-6
RAAN
153.4626°
Arg perigee
271.1919°
Mean anomaly
88.8807°
Rev number
13,339

§ Raw data

STARLINK-318491 59734U 24090E   26264.02393342 -.00000037  00000+0  81869-5 0  99962 59734  43.0023 153.4626 0001098 271.1919  88.8807 15.27576548133395

JSON: /api/v1/satellites/59734 · /tle

For live sub-satellite position, see the globe view (requires WebGL).

§ Visibility from observer

Set your observer location to see the next 7 days of passes ≥ 10°. The values pass through the URL so the page stays shareable.

No JS? Fill the form by hand. The geolocation button needs JavaScript.